EW0771 Weather Reports


Display with metric or nautical units.
time (UTC)temp
F
wind
direction
speed
MPH
gust
MPH
rain 1hr
in
rain 24hr
in
rain mn
in
humidity
%
barometer
mb
20181018081523 42 158 0.0 0.0 0.00 0.00 0.00 75 1023.6
20181018080020 43 158 0.0 0.0 0.00 0.00 0.00 73 1023.8
20181018074523 45 239 0.0 0.0 0.00 0.00 0.00 69 1023.7
20181018073018 46 239 0.0 3.0 0.00 0.00 0.00 68 1023.5
20181018071520 47 158 0.0 1.0 0.00 0.00 0.00 64 1023.4
20181018070005 47 16 1.0 5.0 0.00 0.00 0.00 67 1023.1
20181018063144 47 359 0.0 3.0 0.00 0.00 0.00 67 1022.8
20181018061707 47 110 0.0 6.0 0.00 0.00 0.00 64 1022.6
20181018060423 47 332 0.0 7.0 0.00 0.00 0.00 67 1022.3
20181018054643 47 288 0.0 5.0 0.00 0.00 0.00 69 1022.2
20181018053249 48 357 0.0 2.0 0.00 0.00 0.00 71 1022.0
20181018051550 48 78 0.0 4.0 0.00 0.00 0.00 70 1021.9
20181018050113 48 342 0.0 3.0 0.00 0.00 0.00 70 1021.6
20181018044641 49 15 0.0 3.0 0.00 0.00 0.00 69 1021.4
20181018043119 49 262 0.0 3.0 0.00 0.00 0.00 67 1021.0
20181018041544 50 210 0.0 2.0 0.00 0.00 0.00 67 1021.0
20181018040058 50 11 0.0 3.0 0.00 0.00 0.00 67 1020.9
20181018034542 50 321 0.0 1.0 0.00 0.00 0.00 67 1020.8
20181018033031 51 321 0.0 5.0 0.00 0.00 0.00 65 1020.4
20181018031528 51 136 2.0 5.0 0.00 0.00 0.00 65 1020.1
20181018030031 51 343 1.0 5.0 0.00 0.00 0.00 65 1019.8
20181018024544 52 335 0.0 4.0 0.00 0.00 0.00 65 1019.6
20181018023021 52 347 0.0 5.0 0.00 0.00 0.00 65 1019.3
20181018021529 52 338 0.0 5.0 0.00 0.00 0.00 68 1019.0
20181018020021 52 4 0.0 6.0 0.00 0.00 0.00 66 1018.8
20181018014527 52 38 1.0 4.0 0.00 0.00 0.00 66 1018.5
20181018013015 51 354 0.0 5.0 0.00 0.00 0.00 69 1018.3
20181018011521 51 58 0.0 3.0 0.00 0.00 0.00 72 1017.8
20181018010008 51 82 0.0 1.0 0.00 0.00 0.00 72 1017.5
20181018004504 51 100 0.0 2.0 0.00 0.00 0.00 71 1017.2
20181018003003 52 133 0.0 0.0 0.00 0.00 0.00 69 1017.0
20181018001502 53 356 0.0 1.0 0.00 0.00 0.00 68 1016.9
20181018000204 54 323 0.0 3.0 0.00 0.00 0.00 66 1016.7
20181017234629 54 300 0.0 5.0 0.00 0.00 0.00 64 1016.6
20181017233153 54 70 0.0 5.0 0.00 0.00 0.00 63 1016.3
20181017231629 54 32 0.0 2.0 0.00 0.00 0.00 62 1016.0
20181017230125 54 9 0.0 0.0 0.00 0.00 0.00 61 1015.6
20181017224632 56 9 0.0 3.0 0.00 0.00 0.00 60 1015.2
20181017223201 57 51 0.0 4.0 0.00 0.00 0.00 57 1014.9
20181017221637 57 117 1.0 5.0 0.00 0.00 0.00 52 1014.6
20181017220152 58 309 1.0 5.0 0.00 0.00 0.00 49 1014.2
20181017214650 59 329 2.0 8.0 0.00 0.00 0.00 48 1013.9
20181017213126 60 322 1.0 7.0 0.00 0.00 0.00 50 1013.4
20181017211642 61 64 3.0 8.0 0.00 0.00 0.00 43 1013.2
20181017210113 62 324 3.0 11.0 0.00 0.00 0.00 47 1012.8
20181017204706 62 320 1.0 7.0 0.00 0.00 0.00 52 1012.6
20181017203138 62 269 1.0 8.0 0.00 0.00 0.00 55 1012.3
20181017201614 62 156 1.0 5.0 0.00 0.00 0.00 55 1012.1
20181017200125 63 120 1.0 6.0 0.00 0.00 0.00 55 1012.2
20181017194752 62 23 1.0 5.0 0.00 0.00 0.00 57 1012.2
20181017193113 62 25 1.0 8.0 0.00 0.00 0.00 55 1012.0
20181017191644 61 122 1.0 13.0 0.00 0.00 0.00 56 1012.1
20181017190132 62 164 0.0 6.0 0.00 0.00 0.00 56 1012.3
20181017184611 62 47 2.0 8.0 0.00 0.00 0.00 54 1012.3
20181017183116 61 257 1.0 8.0 0.00 0.00 0.00 55 1012.4
20181017181619 62 89 1.0 6.0 0.00 0.00 0.00 54 1012.6
20181017180123 62 58 1.0 7.0 0.00 0.00 0.00 58 1012.7
20181017174544 62 205 0.0 6.0 0.00 0.00 0.00 53 1012.9
20181017173106 62 121 0.0 3.0 0.00 0.00 0.00 54 1013.3
20181017171550 62 336 1.0 7.0 0.00 0.00 0.00 57 1013.5
20181017170106 62 284 0.0 9.0 0.00 0.00 0.00 56 1013.8
20181017164601 62 176 0.0 8.0 0.00 0.00 0.00 56 1014.1
20181017163058 62 176 1.0 5.0 0.00 0.00 0.00 58 1014.4
20181017161532 61 137 0.0 5.0 0.00 0.00 0.00 59 1014.4
20181017160031 60 129 0.0 5.0 0.00 0.00 0.00 64 1014.8
20181017154542 60 164 0.0 7.0 0.00 0.00 0.00 61 1015.0
20181017153055 59 12 0.0 8.0 0.00 0.00 0.00 60 1015.2
20181017151518 58 359 0.0 8.0 0.00 0.00 0.00 62 1015.3
20181017150014 57 36 1.0 6.0 0.00 0.00 0.00 66 1015.3
20181017144511 56 190 1.0 11.0 0.00 0.00 0.00 65 1015.3
20181017143007 56 36 1.0 4.0 0.00 0.00 0.00 66 1015.3
20181017141649 55 269 0.0 5.0 0.00 0.00 0.00 69 1015.4
20181017140140 54 207 0.0 2.0 0.00 0.00 0.00 76 1015.8
20181017134655 52 120 0.0 5.0 0.00 0.00 0.00 80 1015.7
20181017133113 50 200 0.0 3.0 0.00 0.00 0.00 83 1015.8
20181017131621 49 185 0.0 2.0 0.00 0.00 0.00 85 1015.7
20181017130128 48 25 0.0 2.0 0.00 0.00 0.00 86 1015.7
20181017124541 47 56 0.0 0.0 0.00 0.00 0.00 87 1015.7
20181017123059 47 56 0.0 1.0 0.00 0.00 0.00 88 1015.5
20181017121554 46 78 0.0 1.0 0.00 0.00 0.00 88 1015.6
20181017120103 45 26 0.0 0.0 0.00 0.00 0.00 88 1015.5
20181017114540 45 26 0.0 0.0 0.00 0.00 0.00 88 1015.3
20181017113043 44 26 0.0 0.0 0.00 0.00 0.00 88 1015.4
20181017111622 45 26 0.0 0.0 0.00 0.00 0.00 87 1015.7
20181017110033 45 26 0.0 0.0 0.00 0.00 0.00 87 1015.9
20181017104549 45 26 0.0 0.0 0.00 0.00 0.00 87 1016.0
20181017103108 46 26 0.0 1.0 0.00 0.00 0.00 87 1015.8
20181017101543 46 26 0.0 0.0 0.00 0.00 0.00 87 1015.8
20181017100034 46 26 0.0 1.0 0.00 0.00 0.00 87 1015.8
20181017094605 46 26 0.0 0.0 0.00 0.00 0.00 87 1015.7
20181017093049 47 26 0.0 0.0 0.00 0.00 0.00 87 1015.7
20181017091534 47 26 0.0 0.0 0.00 0.00 0.00 87 1015.7
20181017090132 47 26 0.0 0.0 0.00 0.00 0.00 87 1015.5
20181017084526 47 26 0.0 0.0 0.00 0.00 0.00 87 1015.4
20181017083053 47 26 0.0 0.0 0.00 0.00 0.00 88 1015.1